Regional Weather Roundup
Issued by NWS

Home | Current Version | Previous Version | Graphics & Text | Print | Product List | Glossary On
Versions: 1 2 3 4 5 6 7 8 9 10 11 12 13 14 15 16 17 18 19 20 21 22 23 24 25 26 27 28 29 30 31 32 33 34 35 36 37 38 39 40 41 42 43 44 45 46 47 48 49 50
000
ASUS43 KDMX 231701
RWRIA

WEATHER ROUNDUP FOR IOWA
NATIONAL WEATHER SERVICE DES MOINES IA
1200 PM CDT MON APR 23 2018

NOTE: "FAIR" INDICATES FEW OR NO CLOUDS BELOW 12,000 FEET WITH NO
SIGNIFICANT WEATHER AND/OR OBSTRUCTIONS TO VISIBILITY.

* - THESE STATIONS ARE NOT NWS STATIONS...THUS NOT UNDER NWS
QUALITY CONTROL.  THEY ALSO DO NOT REPORT WEATHER SUCH
AS PRECIPITATION OR FOG.

IAZ001>003-012>014-020>022-031>034-043>046-231800-
   NORTHWEST IOWA

CITY           SKY/WX    TMP DP  RH WIND       PRES   REMARKS
CARROLL *      SUNNY     66  34  30 NE10G20   30.18F
CHEROKEE *     SUNNY     65  32  29 NE5       30.20F
DENISON *      SUNNY     64  30  27 VRB6G14   30.20F
LE MARS *      SUNNY     66  30  26 SE5       30.20F
ORANGE CITY *  SUNNY     64  34  32 E6        30.21S
SHELDON *      SUNNY     64  32  29 VRB5      30.20S
SIOUX CITY     SUNNY     65  33  30 VRB5      30.19F
SPENCER        SUNNY     63  35  35 E6        30.22F
STORM LAKE *   SUNNY     61  32  33 NE9       30.21S
$$

IAZ055>058-069>071-079>083-090>094-231800-
   SOUTHWEST IOWA

CITY           SKY/WX    TMP DP  RH WIND       PRES   REMARKS
ATLANTIC *     SUNNY     66  28  24 NE9G18    30.17F
AUDUBON *      SUNNY     66  28  24 NE12G17   30.19F
CLARINDA *     SUNNY     68  30  24 NE14G21   30.17F
COUNCIL BLFS * SUNNY     66  30  26 NE7G18    30.17F
CRESTON *      SUNNY     66  28  24 NE17G23   30.17F
HARLAN  *      SUNNY     66  28  24 NE12      30.21F
LAMONI         SUNNY     67  35  30 NE14G22   30.14F
RED OAK *      SUNNY     68  34  28 NE10G17   30.16F
SHENANDOAH *   SUNNY     70  28  21 NE14G21   30.16F
$$

IAZ047>049-059>061-072>074-084-231800-
   CENTRAL IOWA

CITY           SKY/WX    TMP DP  RH WIND       PRES   REMARKS
AMES           SUNNY     66  32  28 E8        30.18F
ANKENY *       SUNNY     64  32  29 VRB3G14   30.19F
BOONE *        SUNNY     63  32  31 N7        30.18F
CHARITON *     SUNNY     64  30  27 NE13G21   30.15F
DES MOINES     PTSUNNY   66  31  27 NE14      30.17F
GRINNELL*      SUNNY     65  26  23 E9G17     30.18F
KNOXVILLE *    SUNNY     66  30  26 N12       30.14F
MARSHALLTOWN   SUNNY     65  30  27 NE12G18   30.18F
NEWTON *       SUNNY     64  28  25 NE13G20   30.17F
PELLA *        SUNNY     68  26  20 E10G17    30.17F
$$

IAZ004>006-015-016-023>025-035-036-231800-
   NORTH CENTRAL IOWA

CITY           SKY/WX    TMP DP  RH WIND       PRES   REMARKS
ALGONA *       SUNNY     61  37  41 E6        30.23S
CLARION *      SUNNY     63  32  31 E7G13     30.20F
ESTHERVILLE    SUNNY     54  41  61 CALM      30.23S
FORT DODGE *   SUNNY     64  36  35 E12       30.20F
MASON CITY     SUNNY     61  37  41 N5        30.23F
FOREST CITY *  FAIR      61  34  36 E5        30.23S
IOWA FALLS *   FAIR      64  32  29 NE7       30.21S
$$

IAZ007>011-017>019-026>030-037>042-050>054-066-231800-
   NORTHEAST IOWA

CITY           SKY/WX    TMP DP  RH WIND       PRES   REMARKS
CEDAR RAPIDS   FAIR      68  23  18 NE18G25   30.15F
CHARLES CITY * FAIR      63  32  31 NE8       30.21F
CLINTON *      FAIR      64  31  28 NE16      30.15F
DECORAH *      FAIR      61  32  33 VRB5      30.20F
DUBUQUE        FAIR      62  23  22 NE14G23   30.18F
MONTICELLO *   FAIR      66  25  20 E15G21    30.17F
OELWEIN *      FAIR      63  28  27 VRB6G15   30.20F
WATERLOO       FAIR      64  29  26 E12       30.19F
$$

IAZ064-065-067-068-078-231800-
   EAST CENTRAL IOWA

CITY           SKY/WX    TMP DP  RH WIND       PRES   REMARKS
DAVENPORT      FAIR      64  28  25 NE16G23   30.16F
IOWA CITY      FAIR      63  18  17 NE15      30.16F
MUSCATINE *    FAIR      66  28  24 N14G22    30.14F
QUAD CITIES    FAIR      67  32  27 N10       30.12F
$$

IAZ062-063-075>077-085>089-095>099-231800-
   SOUTHEAST IOWA

CITY           SKY/WX    TMP DP  RH WIND       PRES   REMARKS
BURLINGTON     CLOUDY    66  32  28 NE17      30.10F
FAIRFIELD *    CLOUDY    64  27  24 NE15      30.13S
FORT MADISON * CLOUDY    66  34  30 NE14      30.10F
KEOKUK *       CLOUDY    63  32  31 NE9G15    30.09S
OSKALOOSA *    FAIR      68  26  20 NE21      30.14F
CENTERVILLE *    N/A     66  30  26 N15       30.13F
OTTUMWA        SUNNY     67  28  23 NE13G23   30.13F
WASHINGTON *   MOSUNNY   66  25  20 NE16G23   30.14F
$$

ABBREVIATIONS USED IN REMARKS
   TC - TEMPERATURES IN CELSIUS
  WCI - WIND CHILL INDEX
   HX - HEAT INDEX
  VSB - VISIBILITY
$$




USA.gov is the U.S. government's official web portal to all federal, state and local government web resources and services.